COSMOS 1480

Satellite information

Favourite Embed

Satellite Type and Status

PAYLOADIN ORBIT

Key statistics

Satellite COSMOS 1480 at a glance.

Uptime

15458

Days in orbit

Revolutions

≈ 12.4

Per day

Orbit

LEO

Low Earth Orbit

Inclination

74.0

Latest

Satellite identification and parameters

Extended collection of information and parameters for COSMOS 1480.

Object identification

Identified? True

Debris? False

Object name: COSMOS 1480

International designator: 1983-069H

Object number (NORAD): 14178

Object ID (CCSDS): 14178

Country: COMMONWEALTH OF INDEPENDENT STATES (CIS)

Current information (Y/N): Y

RCS size: MEDIUM

Orbital parameters

Period: 115.784 minutes

Inclination: 74.0239 deg

SMA: 7869.103 km

Apoapsis: 1519.437 km

Periapsis: 1462.499 km

RAAN: 158.1285 deg

Eccentricy: 0.00361787

Argument of periapsis: 355.7053 deg

Mean anomaly: 122.9901 deg

Mean motion: 12.43697931 rev/day

Mean motion (dot): -0.00000007 rev/day2

B* drag term: 0.000060226726 1/REarth

Two-line elements (TLE)

Creation date: Oct. 31, 2025, 3 a.m.

Reference frame: TEME

Reference center: EARTH

Epoch: Oct. 30, 2025, 2:23 a.m. UTC

TLE line 0: 0 COSMOS 1480

TLE line 1: 1 14178U 83069H 25303.09953028 -.00000007 00000-0 60227-4 0 9995

TLE line 2: 2 14178 74.0239 158.1285 0036179 355.7053 122.9901 12.43697931921339

Live tracking on map

Real-time ground track for satellite COSMOS 1480.

In-orbit conjunctions

There are no conjunctions computed for COSMOS 1480, at the moment. Check back to stay up to date, as we update our databases every day.

Go to all conjunctions

Associated space launch

Military communications satellites

COSMOS 1480 was lifted into orbit during the mission ‘Kosmos-3M | Strela-1M 265-272’, on board a Kosmos-3M space rocket.

The launch took place on July 6, 1983, 12:31 a.m. from 132/2.

For more information about the launch, click the button.

Launch to space Kosmos-3M | Strela-1M 265-272
Kosmos-3M | Strela-1M 265-272

Agency: N/A

Status: Launch Successful

Launch date: July 6, 1983, 12:31 a.m. UTC

Rocket: Kosmos-3M

Launch pad: 132/2

Location: Plesetsk Cosmodrome, Russian Federation

...

Latest news about this satellite

There are no fresh news available about this satellite. Check back as we update our databases every day.


Newsletter sign-up

Weekly statistics, charts and insights to help you stay on top of the space industry.